Torna al catalogo

DMSP 5D-2 F11 DEB

AttivoSSO
NORAD 28315·DEBRIS·🇺🇸 United States

Lanciato Nov 28, 1991 da Vandenberg Space Force Base

Loading…

Prossimi Passaggi (prossime 24 ore)

TLE

AggiornatoSource: Space-Track

Epoca: Sep 14, 2026, 05:26 UTC

1 28315U 91082AC  26257.22699307  .00002695  00000-0  11499-2 0  9997
2 28315  98.7920 357.6008 0098335 327.9600  61.0859 14.23336857142323

Traccia DMSP 5D-2 F11 DEB in tempo reale con AllMySat

Download on the App Store